World > North America > United States > Ohio > McDermott  

McDermott, OH Hourly Weather Updates

Feedback E-mail the Weather

Quick Clicks

McDermott, OH Weather Maps

°F °C°F °C
Mcdermott Weather Map
UTC Time: 6/14/2024, 09:11
Your Time:

McDermott, OH Regional Weather

Expires:202406141000;;993521
ASUS41 KCLE 140910
RWRCLE
OHIO REGIONAL WEATHER ROUNDUP
NATIONAL WEATHER SERVICE CLEVELAND, OH
500 AM EDT FRI JUN 14 2024

NOTE: "FAIR" INDICATES FEW OR NO CLOUDS BELOW 12,000 FEET WITH NO
SIGNIFICANT WEATHER AND/OR OBSTRUCTIONS TO VISIBILITY.


OHZ036-037-039>041-045>050-054>059-063>069-073>076-082>088-141000-
  CENTRAL AND SOUTHEAST OHIO
  
CITY           SKY/WX    TMP DP  RH WIND       PRES   REMARKS
COLUMBUS       CLOUDY    73  58  59 NW5       29.90F                  
OSU AIRPORT    CLOUDY    75  57  53 W7        29.90F                  
BOLTON FIELD   CLOUDY    72  57  60 NW3       29.91F                  
RICKENBACK AFB CLOUDY    72  58  60 CALM      29.90F                  
NEWARK         MOCLDY    66  60  81 CALM      29.91S                  
MARION         CLOUDY    73  58  59 W7        29.91S                  
LANCASTER      MOCLDY    71  58  63 W7        29.92S                  
ZANESVILLE     MOCLDY    65  60  84 SW3       29.92R                  
NEW PHILLY     NOT AVBL                                               
$$
  

SKY/WX - Weather  TMP - Temperature  DP - Dew Point  RH - Humidity
WIND - Wind Direction/Speed PRES - Barometric Pressure VSB - Visibility
WCI - Wind Chill Index E13G22 Wind - East Wind 13 mph/Gusts of 22 mph

Trending Headlines

Trending Entertainment Headlines

McDermott Radar Loop

Use the map search tool if you want to place a location marker on the radar map...

McDermott Quick Facts

National Two Day Weather Forecast


E-mail the McDermott Weather Forecast

Voice your opinion or tell us about page issues...